TimeCST,TemperatureF,Dew PointF,Humidity,Sea Level PressureIn,VisibilityMPH,Wind Direction,Wind SpeedMPH,Gust SpeedMPH,PrecipitationIn,Events,Conditions,WindDirDegrees,DateUTC
12:53 AM,36.0,28.0,73,30.22,10.0,NE,10.4,-,N/A,,Clear,50,2013-01-24 06:53:00
1:53 AM,33.1,25.0,72,30.21,10.0,ENE,11.5,-,N/A,,Clear,60,2013-01-24 07:53:00
2:53 AM,30.9,23.0,72,30.20,10.0,ENE,10.4,-,N/A,,Clear,70,2013-01-24 08:53:00
3:53 AM,28.9,21.9,75,30.22,10.0,NE,9.2,-,N/A,,Clear,50,2013-01-24 09:53:00
4:53 AM,28.0,21.0,75,30.23,10.0,NE,13.8,-,N/A,,Clear,50,2013-01-24 10:53:00
5:53 AM,26.1,19.0,75,30.22,10.0,NE,11.5,-,N/A,,Clear,50,2013-01-24 11:53:00
6:53 AM,24.1,18.0,77,30.29,10.0,North,8.1,-,N/A,,Clear,10,2013-01-24 12:53:00
7:53 AM,24.1,18.0,77,30.30,10.0,North,6.9,-,N/A,,Scattered Clouds,10,2013-01-24 13:53:00
8:00 AM,24.8,17.6,74,30.25,10.0,NNE,6.9,-,N/A,,Mostly Cloudy,20,2013-01-24 14:00:00
9:53 AM,26.1,17.1,69,30.32,10.0,NE,9.2,-,N/A,,Overcast,40,2013-01-24 15:53:00
10:53 AM,28.0,18.0,66,30.31,10.0,NNE,8.1,-,N/A,,Overcast,30,2013-01-24 16:53:00
11:53 AM,28.9,19.0,67,30.29,10.0,NNE,10.4,-,N/A,,Overcast,30,2013-01-24 17:53:00
12:53 PM,30.9,18.0,59,30.26,10.0,North,4.6,-,N/A,,Overcast,360,2013-01-24 18:53:00
1:53 PM,32.0,19.0,59,30.21,10.0,NNE,5.8,-,N/A,,Overcast,20,2013-01-24 19:53:00
2:53 PM,33.1,19.9,59,30.19,10.0,NNW,4.6,-,N/A,,Overcast,340,2013-01-24 20:53:00
3:53 PM,33.1,19.9,59,30.16,10.0,Calm,Calm,-,N/A,,Overcast,0,2013-01-24 21:53:00
4:53 PM,33.1,21.9,64,30.14,10.0,South,3.5,-,N/A,,Mostly Cloudy,180,2013-01-24 22:53:00
5:05 PM,33.8,21.2,60,30.10,10.0,Calm,Calm,-,N/A,,Scattered Clouds,0,2013-01-24 23:05:00
5:53 PM,33.1,21.9,64,30.16,10.0,Calm,Calm,-,N/A,,Clear,0,2013-01-24 23:53:00
6:53 PM,28.9,21.0,72,30.15,10.0,East,5.8,-,N/A,,Clear,80,2013-01-25 00:53:00
7:53 PM,25.0,19.9,81,30.17,10.0,ESE,4.6,-,N/A,,Clear,110,2013-01-25 01:53:00
8:53 PM,24.1,19.0,81,30.17,10.0,SE,3.5,-,N/A,,Clear,140,2013-01-25 02:53:00
9:53 PM,24.1,19.9,84,30.15,10.0,Calm,Calm,-,N/A,,Clear,0,2013-01-25 03:53:00
10:53 PM,25.0,21.0,85,30.16,10.0,Calm,Calm,-,N/A,,Clear,0,2013-01-25 04:53:00
11:53 PM,26.1,21.0,81,30.17,10.0,NE,3.5,-,N/A,,Clear,40,2013-01-25 05:53:00